Weather in Svolver

Norway     68°14′10″N   14°33′18″E
temp.,
°C
wind,
m/s
gust,
m/s
humid.,
%
clouds,
%
prec.,
mm/h
press.,
hPa
HPBL,
m
16 september, thu
thu1623:00+7e336967 0.0 1019214
02:00+7e4470100 0.0 1019197
05:00+7e4575100 0.0 1018204
08:00+7e4471100 0.0 1018199
11:00+9e4464100 0.0 1018281
14:00+9e4461100 0.0 1018306
17:00+10e3364100 0.0 1019194
20:00+9e2366100 0.0 1019123
17 september, fri
fri1723:00+9e2266100 0.0 1019123
02:00+9e2269100 0.0 1020108
05:00+9sse3374100 0.0 1020222
08:00+8se2387100 0.6 1021193
11:00+8ese3388100 0.2 1021236
14:00+9ese338170 0.2 1021289
17:00+9ese338299 0.0 1021272
20:00+9ese3382100 0.1 1021207
18 september, sat
sat1823:00+9ese348193 0.0 1021214
02:00+8ese338678 0.0 1021170
05:00+8ese3485100 0.0 1020165
08:00+9se3480100 0.0 1021223
11:00+10se3571100 0.0 1021329
14:00+10s5870100 0.0 1021442
17:00+11s51072100 0.0 1022619
20:00+11s5974100 0.1 1022435
19 september, sun
sun1923:00+11s5979100 0.1 1022582
02:00+11ssw71282100 0.1 1022754
05:00+10s71283100 0.5 1022879
08:00+10s91490100 2.6 1023779
11:00+10ssw91494100 3.6 1023761
14:00+10ssw81395100 7.0 1024732
17:00+10ssw81395100 3.9 1024755
20:00+11ssw81396100 7.4 1024673
20 september, mon
mon2023:00+11ssw81595100 1.7 1024772
02:00+11ssw91689100 2.4 1023779
05:00+11ssw101694100 1.5 1023800
08:00+11sw81398100 6.3 1023690
11:00+11ssw101498100 3.4 1023733
14:00+11ssw101696100 4.7 1024770
17:00+11ssw10159198 0.3 1024767
20:00+11ssw10169196 0.3 1023793